User: anonymous   Login
Location: Unspecified
(0.0000°N, 0.0000°E)
Time: 17:50:27
(UTC+00:00)
Language:

MERIDIAN 2 - Orbit

View from above orbital plane
View from above orbital plane
View from above satellite
View from above satellite

Ground track
Ground track

The orbit data is extracted from the following two-line orbital elements,

1 35008U 09029A   17085.28356308 +.00000160 +00000-0 +14674-2 0  9993
2 35008 064.6998 057.9937 7153983 256.4426 260.1886 02.24479570064208
Epoch (UTC): 26 March 2017 06:48:19
Eccentricity: 0.7153983
inclination: 64.6998°
perigee height: 634 km
apogee height: 35886 km
right ascension of ascending node: 57.9937°
argument of perigee: 256.4426°
revolutions per day: 2.24479570
mean anomaly at epoch: 260.1886°
orbit number at epoch: 6420

The dashed part of the orbit path shows where the satellite is in the earth's shadow,  

DLR